Skagway, AK

8:39 AM AKDT on October 22, 2017 (GMT -0800)
Skagway

Weather History for PAGY - December, 2012

Change the Weather History Date:

Saturday, December 22, 2012

  Actual Average Record
Temperature  
Mean Temperature 4 °F -  
Max Temperature 7 °F 32 °F 54 °F (1999)
Min Temperature 1 °F 23 °F -4 °F (1971)
Degree Days  
Heating Degree Days 61    
Moisture  
Dew Point -14 °F    
Average Humidity 44    
Maximum Humidity 46    
Minimum Humidity 41    
Precipitation  
Precipitation 0.00 in - - ()
Sea Level Pressure  
Sea Level Pressure 30.11 in    
Wind  
Wind Speed 31 mph (NNE)    
Max Wind Speed 39 mph    
Max Gust Speed 53 mph    
Visibility 10 miles    
Events Snow    
Averages and records for this station are not official NWS values.
T = Trace of Precipitation, MM = Missing Value Source: NWS Daily Summary

Daily Weather History Graph

Daily Weather History Graph

Search for Another Location

Airport or City:

Trip Planner

Search our weather history database for the weather conditions in past years. The results will help you decide how hot, cold, wet, or windy it might be!

Date:

Astronomy

Dec. 22, 2012 Rise Set
Actual Time 8:58 AM AKST 3:01 PM AKST
Civil Twilight 8:02 AM AKST 3:57 PM AKST
Nautical Twilight 7:07 AM AKST 4:53 PM AKST
Astronomical Twilight 6:16 AM AKST 5:43 PM AKST
Moon 12:09 PM AKST 3:00 AM AKST
Length of Visible Light 7h 54m
Length of Day
6h 02m
Waxing Gibbous, 75% of the Moon is Illuminated
Dec 22
Waxing Gibbous
Dec 28
Full
Jan 4
Last Quarter
Jan 11
New
Jan 18
First Quarter

Hourly Weather History & Observations

Time (AKST) Temp. Windchill Dew Point Humidity Pressure Visibility Wind Dir Wind Speed Gust Speed Precip Events Conditions
12:53 AM 5.0 °F -18.3 °F -14.1 °F 41% 30.20 in 10.0 mi NNE 27.6 mph 43.7 mph N/A   Clear
1:53 AM 3.9 °F -21.2 °F -14.1 °F 43% 30.19 in 10.0 mi NE 32.2 mph 44.9 mph N/A   Clear
3:53 AM 3.9 °F -21.5 °F -14.1 °F 43% 30.18 in 10.0 mi NNE 33.4 mph 44.9 mph N/A   Clear
4:53 AM 3.0 °F -22.4 °F -14.1 °F 45% 30.17 in 10.0 mi NNE 32.2 mph 41.4 mph N/A   Clear
5:53 AM 3.0 °F -22.4 °F -15.0 °F 43% 30.17 in 10.0 mi NE 32.2 mph 50.6 mph N/A   Clear
6:53 AM 3.0 °F -24.3 °F -15.0 °F 43% 30.14 in 10.0 mi NNE 39.1 mph 48.3 mph 0.00 in   Overcast
7:53 AM 3.0 °F -23.7 °F -15.0 °F 43% 30.14 in 10.0 mi NE 36.8 mph 47.2 mph 0.00 in   Mostly Cloudy
8:53 AM 3.0 °F -23.1 °F -15.0 °F 43% 30.14 in 10.0 mi NE 34.5 mph 46.0 mph 0.00 in   Partly Cloudy
9:53 AM 1.9 °F -22.4 °F -15.0 °F 45% 30.14 in 9.0 mi NNE 27.6 mph 48.3 mph 0.00 in   Clear
10:53 AM 1.9 °F -24.6 °F -15.0 °F 45% 30.13 in 7.0 mi NNE 34.5 mph 46.0 mph 0.00 in Snow Light Snow
11:53 AM 3.0 °F -22.8 °F -15.0 °F 43% 30.12 in 10.0 mi NE 33.4 mph 46.0 mph 0.00 in   Clear
12:53 PM 3.9 °F -20.9 °F -14.1 °F 43% 30.11 in 9.0 mi NNE 31.1 mph 42.6 mph 0.00 in   Clear
1:53 PM 3.9 °F -21.2 °F -14.1 °F 43% 30.10 in 9.0 mi NE 32.2 mph 47.2 mph 0.00 in Snow Light Snow
2:53 PM 3.9 °F -22.8 °F -14.1 °F 43% 30.07 in 9.0 mi NNE 38.0 mph 52.9 mph 0.00 in Snow Light Snow
3:53 PM 3.9 °F -20.5 °F -14.1 °F 43% 30.08 in 9.0 mi NNE 29.9 mph 50.6 mph 0.00 in Snow Light Snow
4:53 PM 3.9 °F -20.1 °F -13.0 °F 46% 30.07 in 9.0 mi NNE 28.8 mph 47.2 mph 0.00 in   Clear
5:53 PM 5.0 °F -19.0 °F -11.9 °F 46% 30.06 in 10.0 mi NNE 29.9 mph 42.6 mph 0.00 in   Scattered Clouds
6:53 PM 5.0 °F -17.9 °F -11.9 °F 46% 30.07 in 10.0 mi NNE 26.5 mph 38.0 mph N/A   Partly Cloudy
7:53 PM 6.1 °F -16.8 °F -11.9 °F 44% 30.05 in 10.0 mi NNE 27.6 mph 40.3 mph N/A   Clear
8:53 PM 6.1 °F -16.5 °F -11.9 °F 44% 30.04 in 10.0 mi NNE 26.5 mph 38.0 mph N/A   Mostly Cloudy
9:53 PM 6.1 °F -17.2 °F -11.9 °F 44% 30.04 in 10.0 mi NNE 28.8 mph 42.6 mph N/A   Clear
10:53 PM 7.0 °F -16.0 °F -11.0 °F 44% 30.03 in 10.0 mi NNE 28.8 mph 46.0 mph N/A   Clear
11:53 PM 7.0 °F -14.9 °F -11.0 °F 44% 30.03 in 10.0 mi NNE 25.3 mph 35.7 mph N/A   Partly Cloudy